TimeEST,TemperatureF,Dew PointF,Humidity,Sea Level PressureIn,VisibilityMPH,Wind Direction,Wind SpeedMPH,Gust SpeedMPH,PrecipitationIn,Events,Conditions,WindDirDegrees,DateUTC
12:53 AM,46.9,42.1,83,30.12,-9999.0,Calm,Calm,-,N/A,,Unknown,0,2013-01-22 05:53:00
1:53 AM,48.9,41.0,74,30.13,-9999.0,North,3.5,-,N/A,,Unknown,360,2013-01-22 06:53:00
2:53 AM,45.0,41.0,86,30.12,-9999.0,Calm,Calm,-,N/A,,Unknown,0,2013-01-22 07:53:00
3:53 AM,43.0,39.0,86,30.13,-9999.0,North,3.5,-,N/A,,Unknown,350,2013-01-22 08:53:00
4:53 AM,44.1,39.0,82,30.14,-9999.0,North,3.5,-,N/A,,Unknown,10,2013-01-22 09:53:00
5:53 AM,42.1,37.9,85,30.17,-9999.0,North,4.6,-,N/A,,Unknown,360,2013-01-22 10:53:00
6:53 AM,43.0,35.1,74,30.21,-9999.0,North,5.8,-,N/A,,Unknown,10,2013-01-22 11:53:00
7:53 AM,39.0,34.0,82,30.24,-9999.0,North,3.5,-,N/A,,Unknown,350,2013-01-22 12:53:00
8:53 AM,46.0,34.0,63,30.26,-9999.0,NNE,8.1,-,N/A,,Unknown,20,2013-01-22 13:53:00
9:53 AM,50.0,30.0,46,30.29,-9999.0,NNE,10.4,-,N/A,,Unknown,20,2013-01-22 14:53:00
10:53 AM,53.1,28.9,40,30.30,-9999.0,NNE,10.4,-,N/A,,Unknown,30,2013-01-22 15:53:00
11:53 AM,55.9,28.0,34,30.30,-9999.0,NNE,9.2,-,N/A,,Unknown,30,2013-01-22 16:53:00
12:53 PM,60.1,27.0,28,30.27,-9999.0,NNE,10.4,-,N/A,,Unknown,20,2013-01-22 17:53:00
1:53 PM,62.1,28.0,28,30.25,-9999.0,North,9.2,-,N/A,,Unknown,360,2013-01-22 18:53:00
2:53 PM,63.0,28.9,28,30.25,-9999.0,NNW,8.1,-,N/A,,Unknown,330,2013-01-22 19:53:00
3:53 PM,63.0,28.9,28,30.24,-9999.0,Variable,4.6,-,N/A,,Unknown,0,2013-01-22 20:53:00
4:53 PM,61.0,30.0,31,30.26,-9999.0,NNW,3.5,-,N/A,,Unknown,340,2013-01-22 21:53:00
5:53 PM,55.0,35.1,47,30.27,-9999.0,Calm,Calm,-,N/A,,Unknown,0,2013-01-22 22:53:00
6:53 PM,48.9,36.0,61,30.27,-9999.0,Calm,Calm,-,N/A,,Unknown,0,2013-01-22 23:53:00
7:53 PM,45.0,36.0,71,30.28,-9999.0,Calm,Calm,-,N/A,,Unknown,0,2013-01-23 00:53:00
8:53 PM,42.1,35.1,76,30.29,-9999.0,Calm,Calm,-,N/A,,Unknown,0,2013-01-23 01:53:00
9:53 PM,39.9,34.0,79,30.30,-9999.0,Calm,Calm,-,N/A,,Unknown,0,2013-01-23 02:53:00
10:53 PM,37.9,33.1,83,30.32,-9999.0,Calm,Calm,-,N/A,,Unknown,0,2013-01-23 03:53:00
11:53 PM,36.0,32.0,86,30.32,-9999.0,Calm,Calm,-,N/A,,Unknown,0,2013-01-23 04:53:00